Location: Paralde Spring
(38.5794°N, 119.0140°W)
Time: 18:18:13
(UTC+00:00)

SKYMED 2 - Pass Details

Date: 18 September 2020
Orbit: 621 x 623 km, 97.9° (Epoch: 20 October)

Event Time Altitude Azimuth Distance (km) Brightness Sun altitude
Rises 13:03:03 0° 162° (SSE) 2,889 7.1 -8.2°
Reaches altitude 10° 13:05:14 10° 161° (SSE) 1,987 6.3 -7.7°
Maximum altitude 13:09:32 75° 76° (ENE) 649 3.9 -6.9°
Drops below altitude 10° 13:13:53 10° 351° (N) 2,001 6.2 -6.1°
Sets 13:16:05 0° 350° (N) 2,912 7.0 -5.6°
